Flag for Croatia Weather past 2 weeks in Dubrovnik, Croatia

64 °F

Passing clouds.

Feels Like: 64 °F
Forecast: 59 / 64 °F
Wind: 6 mph from Northeast

Location: Dubrovnik / Cilipi

Current Time: Oct 7, 2015 at 3:09:30 AM

Latest Report: Oct 7, 2015 at 2:30 AM

Visibility: N/A

Pressure: 29.83 "Hg

Humidity: 83%

Dew point: 59 °F

Location of DubrovnikLocation

Historic Weather in Dubrovnik — Graph


Dubrovnik temperature yesterday

Maximum temperature yesterday: 70 °F (at 11:30 AM)
Minimum temperature yesterday: 57 °F (at 7:00 AM)
Average temperature yesterday: 65 °F

Past Weeks' High & Low Weather Summary

High77 °F (Sep 22, 12:00 PM)100% (Sep 24, 3:00 PM)30.27 "Hg (Sep 24, 3:00 PM)
Low54 °F (Sep 25, 3:30 AM)34% (Sep 28, 2:00 PM)29.77 "Hg (Sep 22, 4:30 PM)
Average67 °F62%30.03 "Hg
* Reported Sep 22 2:00 AM — Oct 7 2:00 AM, Dubrovnik, Weather by CustomWeather, © 2015

Note: Actual official high and low records may vary slightly from our data, if they occured in-between our weather recording intervals... More about our weather records


Dubrovnik weather history for previous 24 hours

Time TempWeatherWind HumidityBarometerVisibility
2:00 AM
Wed, Oct 7
66 °FPassing clouds.9 mph73%29.83 "HgN/A
1:30 AM64 °FPassing clouds.7 mph83%29.86 "HgN/A
1:00 AM64 °FPassing clouds.7 mph88%29.83 "HgN/A
12:30 AM63 °FClear.7 mph94%29.86 "Hg10 mi
12:00 AM64 °FPassing clouds.7 mph88%29.86 "HgN/A
11:30 PM
Tue, Oct 6
64 °FPassing clouds.6 mph88%29.86 "HgN/A
11:00 PM64 °FPassing clouds.6 mph88%29.86 "HgN/A
10:30 PM64 °FClear.6 mph88%29.86 "Hg10 mi
10:00 PM64 °FClear.5 mph88%29.86 "Hg10 mi
9:30 PM64 °FClear.7 mph88%29.86 "Hg10 mi
9:00 PM64 °FClear.7 mph83%29.86 "Hg10 mi
8:30 PM64 °FPassing clouds.6 mph83%29.86 "HgN/A
8:00 PM66 °FPassing clouds.5 mph83%29.89 "HgN/A
7:30 PM66 °FClear.5 mph83%29.89 "Hg10 mi
7:00 PM66 °FSunny.5 mph83%29.86 "Hg10 mi
6:30 PM66 °FSunny.6 mph83%29.86 "Hg10 mi
6:00 PM68 °FSunny.No wind73%29.86 "Hg10 mi
5:30 PM68 °FPassing clouds.1 mph73%29.89 "HgN/A
5:00 PM68 °FScattered clouds.5 mph73%29.89 "HgN/A
4:30 PM70 °FPassing clouds.5 mph73%29.89 "HgN/A
4:00 PM70 °FPassing clouds.6 mph69%29.89 "HgN/A
3:30 PM70 °FPassing clouds.8 mph78%29.89 "HgN/A
3:00 PM70 °FPassing clouds.9 mph73%29.89 "HgN/A
2:30 PM70 °FPassing clouds.9 mph69%29.89 "HgN/A
2:00 PM70 °FPassing clouds.8 mph69%29.92 "HgN/A
1:30 PM70 °FPassing clouds.9 mph64%29.92 "HgN/A
1:00 PM70 °FPassing clouds.9 mph69%29.92 "HgN/A
12:30 PM68 °FPassing clouds.9 mph73%29.92 "HgN/A
12:00 PM70 °FPassing clouds.7 mph64%29.92 "HgN/A
11:30 AM70 °FPassing clouds.6 mph64%29.95 "HgN/A
11:00 AM68 °FPassing clouds.6 mph64%29.95 "HgN/A
10:30 AM68 °FSunny.8 mph60%29.95 "Hg10 mi
10:00 AM66 °FSunny.6 mph64%29.95 "Hg10 mi
9:30 AM66 °FSunny.6 mph64%29.95 "Hg10 mi
9:00 AM64 °FSunny.6 mph68%29.95 "Hg10 mi
8:30 AM63 °FPassing clouds.6 mph73%29.95 "HgN/A
8:00 AM64 °FPassing clouds.8 mph64%29.92 "HgN/A
7:30 AM57 °FClear.8 mph82%29.95 "Hg10 mi
7:00 AM57 °FPassing clouds.7 mph82%29.95 "HgN/A
6:30 AM59 °FPassing clouds.7 mph77%29.92 "HgN/A
6:00 AM61 °FClear.8 mph72%29.92 "Hg10 mi
5:30 AM63 °FPassing clouds.13 mph64%29.92 "HgN/A
5:00 AM63 °FPassing clouds.9 mph68%29.92 "HgN/A
4:30 AM63 °FPassing clouds.8 mph68%29.92 "HgN/A
4:00 AM61 °FPassing clouds.8 mph72%29.95 "HgN/A
3:30 AM61 °FPassing clouds.10 mph77%29.95 "HgN/A
3:00 AM63 °FPassing clouds.8 mph73%29.95 "HgN/A
Weather by CustomWeather, © 2015

See weather overviewHow to use our weather pages